Weather History for KBFF - July, 2013

Change the Weather History Date:

Monday, July 22, 2013

  Actual Average Record
Temperature  
Mean Temperature 77 °F 75 °F  
Max Temperature 92 °F 90 °F 103 °F (1964)
Min Temperature 61 °F 59 °F 43 °F (1897)
Degree Days  
Heating Degree Days 0 0  
Month to date heating degree days 0 1  
Since 1 June heating degree days 21 61  
Since 1 July heating degree days 0 1  
Cooling Degree Days 12 10  
Month to date cooling degree days 252 200  
Year to date cooling degree days 501 349  
Since 1 June cooling degree days 447 326  
Growing Degree Days 28 (Base 50)    
Moisture  
Dew Point 58 °F    
Average Humidity 52    
Maximum Humidity 68    
Minimum Humidity 36    
Precipitation  
Precipitation 0.00 in 0.07 in 1.66 in (1993)
Month to date precipitation 0.74 1.33  
Year to date precipitation 6.92 10.50  
Snow  
Snow 0.00 in 0.00 in - ()
Month to date snowfall 0.0 0.0  
Since 1 July snowfall 0.0 0.0  
Snow Depth 0.00 in    
Sea Level Pressure  
Sea Level Pressure 29.80 in    
Wind  
Wind Speed 10 mph (East)    
Max Wind Speed 22 mph    
Max Gust Speed 31 mph    
Visibility 10 miles    
Events      
T = Trace of Precipitation, MM = Missing Value Source: NWS Daily Summary

Daily Weather History Graph

Daily Weather History Graph

Search for Another Location

Airport or City:

Trip Planner

Search our weather history database for the weather conditions in past years. The results will help you decide how hot, cold, wet, or windy it might be!

Date:

Astronomy

Jul. 22, 2013 Rise Set
Actual Time 5:38 AM MDT 8:22 PM MDT
Civil Twilight 5:06 AM MDT 8:54 PM MDT
Nautical Twilight 4:25 AM MDT 9:35 PM MDT
Astronomical Twilight 3:38 AM MDT 10:21 PM MDT
Moon 8:08 PM MDT (7/22) 5:39 AM MDT (7/22)
Length of Visible Light 15h 48m
Length of Day
14h 43m
Full, 100% of the Moon is Illuminated
Jul 22
Full
Jul 22
Full
Jul 29
Last Quarter
Aug 6
New
Aug 14
First Quarter

Hourly Weather History & Observations

Time (MDT) Temp. Heat Index Dew Point Humidity Pressure Visibility Wind Dir Wind Speed Gust Speed Precip Events Conditions
12:53 AM 73.0 °F - 53.1 °F 49% 29.75 in 10.0 mi SSE 8.1 mph - N/A   Clear
1:53 AM 66.9 °F - 55.9 °F 68% 29.75 in 10.0 mi ESE 6.9 mph - N/A   Clear
2:53 AM 66.0 °F - 52.0 °F 60% 29.74 in 10.0 mi East 5.8 mph - N/A   Clear
3:53 AM 64.9 °F - 52.0 °F 63% 29.75 in 10.0 mi East 3.5 mph - N/A   Clear
4:53 AM 66.0 °F - 53.1 °F 63% 29.78 in 10.0 mi NE 8.1 mph - N/A   Clear
5:53 AM 68.0 °F - 53.1 °F 59% 29.80 in 10.0 mi NNE 10.4 mph - N/A   Overcast
6:06 AM 68.0 °F - 53.6 °F 60% 29.96 in 10.0 mi NNE 11.5 mph - N/A   Overcast
6:53 AM 68.0 °F - 55.0 °F 63% 29.82 in 10.0 mi NNE 12.7 mph - N/A   Mostly Cloudy
7:53 AM 73.0 °F - 57.0 °F 57% 29.82 in 10.0 mi NE 13.8 mph - N/A   Mostly Cloudy
8:53 AM 75.9 °F - 57.9 °F 54% 29.86 in 10.0 mi NE 8.1 mph - N/A   Clear
9:53 AM 79.0 °F - 57.9 °F 48% 29.85 in 10.0 mi North - - N/A   Clear
10:53 AM 81.0 °F 81.3 °F 59.0 °F 47% 29.85 in 10.0 mi Variable 3.5 mph - N/A   Clear
11:53 AM 82.9 °F 83.2 °F 60.1 °F 46% 29.84 in 10.0 mi Calm Calm - N/A   Clear
12:53 PM 84.9 °F 84.8 °F 60.1 °F 43% 29.83 in 10.0 mi East 8.1 mph - N/A   Clear
1:53 PM 88.0 °F 87.6 °F 60.1 °F 39% 29.83 in 10.0 mi SSE 10.4 mph 16.1 mph N/A   Clear
2:53 PM 89.1 °F 88.8 °F 60.1 °F 38% 29.81 in 10.0 mi East 10.4 mph - N/A   Clear
3:53 PM 90.0 °F 90.0 °F 61.0 °F 38% 29.80 in 10.0 mi North - - N/A   Clear
4:53 PM 90.0 °F 90.0 °F 61.0 °F 38% 29.77 in 10.0 mi North - - N/A   Clear
5:53 PM 91.0 °F 90.5 °F 60.1 °F 35% 29.73 in 10.0 mi East 8.1 mph - N/A   Clear
6:53 PM 89.1 °F 88.2 °F 59.0 °F 36% 29.72 in 10.0 mi East 13.8 mph - N/A   Clear
7:53 PM 82.9 °F 83.3 °F 61.0 °F 47% 29.71 in 10.0 mi ESE 19.6 mph - N/A   Clear
8:53 PM 78.1 °F - 61.0 °F 56% 29.75 in 10.0 mi ESE 12.7 mph - N/A   Clear
9:53 PM 77.0 °F - 60.1 °F 56% 29.76 in 10.0 mi ESE 17.3 mph - N/A   Clear
10:53 PM 73.9 °F - 60.1 °F 62% 29.77 in 10.0 mi ESE 10.4 mph - N/A   Clear
11:53 PM 73.9 °F - 60.1 °F 62% 29.82 in 10.0 mi ENE 17.3 mph 25.3 mph N/A   Clear